RH
4 5 5 4 5 5 4 5 5 5 5 5 6 6 6 6 7 8 8 8 9 9 9 10 10 10 10 10 11 11 11 10 10 11 11 11 12 11 12 13 13 14 14 16 17 18 20 21 21 21 23 24 24 24 24 24 22 23 23 25 26 26 29 31 29 24 20 19 22 25 27 26 26 27 23 24 28 31 43 54 58 71 79 72 75 75 55
5 5 5 5 5 5 5 5 5 6 7 7 7 7 8 8 8 9 9 9 9 9 10 11 11 11 11 11 11 11 11 11 11 12 12 13 13 12 13 14 14 15 16 17 18 19 20 21 21 22 23 25 25 25 25 24 23 23 24 26 28 28 29 31 32 32 30 26 26 26 26 27 26 22 21 23 22 30 47 56 66 80 75 69 78 70 43
5 5 5 5 5 5 5 5 6 7 7 8 8 8 8 8 9 9 10 10 9 8 9 11 11 11 12 12 12 11 11 12 12 13 14 14 14 14 14 15 16 17 18 19 20 21 21 21 22 23 24 25 26 26 26 25 23 23 25 28 30 31 32 33 34 40 43 40 34 29 27 28 25 21 23 24 23 33 47 59 74 78 64 61 73 65 45
6 5 5 5 5 6 6 6 6 7 8 8 8 8 8 8 8 9 8 9 8 7 9 10 10 11 11 12 13 13 12 12 13 14 15 16 16 15 16 17 18 19 20 21 22 22 23 23 24 24 26 26 26 26 25 25 24 25 26 28 32 36 35 33 34 35 36 35 32 29 30 30 25 23 24 25 29 35 46 64 72 62 59 64 61 56 56
6 6 6 6 7 7 7 7 7 7 7 7 7 7 7 6 7 7 7 7 7 7 8 10 10 10 11 12 13 15 14 13 13 14 15 17 17 16 17 19 20 21 22 22 23 23 24 25 25 26 27 26 27 26 25 25 25 26 27 29 33 36 35 32 33 32 31 31 29 27 27 26 25 27 25 24 29 34 43 55 50 46 67 70 49 53 70
8 7 7 7 7 7 7 6 6 6 6 6 6 6 5 5 5 5 6 6 6 7 8 9 10 10 11 12 13 15 16 15 14 15 16 18 18 18 19 21 22 22 23 23 24 25 25 26 26 27 27 27 27 26 25 26 26 26 28 29 31 35 36 33 32 32 30 29 28 24 23 24 26 28 25 24 30 35 40 41 37 47 69 68 56 65 74
7 6 6 5 5 5 5 5 4 4 4 4 5 4 4 4 4 4 5 4 5 6 7 8 9 9 10 11 12 14 15 15 15 16 17 19 19 19 20 22 23 24 24 25 25 26 27 27 27 27 27 27 27 26 26 26 26 26 27 28 31 35 36 35 35 34 30 27 26 24 23 25 26 25 25 28 32 36 38 38 41 50 59 64 69 71 66
5 5 4 4 4 4 3 4 3 3 3 3 4 3 3 4 4 4 4 3 4 5 5 7 8 8 9 11 12 13 14 15 16 16 17 19 20 20 21 22 24 25 25 26 26 27 28 28 28 28 28 27 27 27 27 26 27 27 27 27 30 34 35 35 38 37 30 25 26 26 26 28 28 27 28 30 32 35 39 43 47 52 55 59 66 67 65
4 4 4 3 3 3 3 3 3 3 3 3 3 3 3 3 3 4 4 3 4 4 5 6 7 7 8 10 11 13 14 14 15 16 17 19 20 21 22 22 24 25 26 26 27 28 29 29 29 29 28 28 27 27 27 28 28 27 27 27 28 33 35 35 40 41 31 26 28 28 29 29 29 29 30 31 33 38 45 48 50 54 56 59 65 71 72
3 3 3 3 3 3 3 3 3 3 3 3 3 3 3 3 3 3 4 3 3 4 4 5 6 6 7 9 11 12 13 14 14 16 17 19 20 21 22 23 24 25 26 26 28 29 29 29 30 29 29 28 28 28 28 29 29 28 29 29 29 34 37 37 43 44 33 29 32 32 33 36 34 33 33 34 38 43 48 51 54 58 61 66 73 75 74
3 3 3 3 3 3 3 3 3 3 3 3 3 3 3 3 3 3 4 3 3 4 4 5 6 6 7 8 10 11 12 13 14 16 17 18 20 21 22 23 25 25 26 27 28 29 29 30 30 29 30 29 28 30 31 30 31 31 31 31 31 33 37 38 43 44 37 33 34 35 40 44 41 36 35 39 44 48 52 55 60 64 68 72 74 73 74
3 3 3 3 3 3 3 3 3 3 3 3 3 3 2 3 3 3 3 3 3 4 4 5 5 6 7 8 9 10 12 13 14 16 17 18 20 21 21 23 25 26 27 28 29 30 29 30 30 29 30 30 30 32 33 32 33 32 32 33 34 34 35 37 40 42 41 37 38 46 50 45 39 38 39 44 49 52 56 60 66 71 74 75 74 75 80
2 3 2 3 3 3 3 3 3 3 3 3 3 3 3 3 3 3 3 3 3 3 4 5 5 6 7 8 9 10 11 12 14 15 16 17 19 20 21 23 25 26 27 28 29 30 29 29 30 30 30 31 32 33 34 33 33 33 34 35 37 37 39 41 42 43 42 40 44 54 52 42 39 42 43 47 52 55 62 68 72 75 77 79 80 84 88
3 3 3 3 3 3 3 3 3 3 3 3 3 2 2 3 3 2 3 4 3 3 4 5 5 6 8 8 9 10 11 12 14 15 16 17 18 20 22 24 26 26 28 29 29 29 30 29 29 30 30 31 33 34 33 33 33 34 36 37 39 42 44 46 47 47 46 46 48 51 49 45 45 45 46 51 54 59 70 78 78 77 80 85 91 93 89
3 4 4 4 4 4 4 4 3 3 2 2 2 2 2 2 3 3 3 3 4 4 4 5 5 6 8 9 9 10 11 12 14 14 15 16 18 21 23 25 26 27 27 28 30 30 30 30 31 32 33 33 35 34 33 34 35 36 38 39 41 44 46 49 53 52 50 53 57 59 58 54 49 47 49 54 57 65 77 83 80 80 84 90 95 94 87
4 4 3 3 3 3 3 3 2 2 2 2 2 2 2 2 3 3 3 3 4 4 4 5 5 6 8 9 9 10 12 12 13 14 15 17 20 22 24 25 26 27 27 28 30 30 31 32 33 35 36 36 36 35 35 36 36 37 39 41 42 45 47 50 55 55 52 57 65 66 60 54 50 50 52 57 64 74 82 82 78 81 90 95 96 91 85
3 3 3 3 2 2 2 2 2 2 2 2 2 2 2 2 3 3 3 3 3 4 4 5 6 6 8 9 9 10 13 13 14 14 15 18 21 22 24 25 25 27 28 29 29 30 32 34 36 36 37 37 37 37 37 39 39 39 40 43 44 47 50 51 54 54 53 58 64 63 57 52 52 53 57 64 70 77 85 87 84 86 95 98 94 87 83
2 2 2 2 2 2 1 1 2 2 2 2 2 2 2 2 2 2 3 3 3 4 4 5 6 7 8 10 10 11 13 14 14 14 16 19 22 23 24 26 26 27 28 29 30 31 32 35 37 37 37 37 38 39 39 41 42 42 43 45 46 49 53 54 53 54 56 58 61 61 57 55 56 59 63 69 74 79 89 95 94 95 99 95 87 81 82
2 2 2 1 2 2 2 2 2 2 2 2 2 2 2 2 3 3 3 3 3 4 4 5 6 7 8 10 10 11 14 14 13 14 17 20 22 23 24 25 26 28 29 30 31 32 33 35 36 37 38 39 39 41 42 43 44 45 46 49 51 54 56 56 57 60 61 59 59 62 61 58 61 66 68 73 82 91 97 98 97 98 96 86 78 79 87
1 1 1 1 2 2 2 2 2 1 2 2 2 2 2 2 2 2 3 3 3 4 4 5 6 8 9 10 11 12 14 14 13 15 18 20 22 23 24 26 27 28 30 31 32 33 34 35 35 37 39 39 39 42 44 43 43 47 50 53 56 59 60 60 62 64 63 62 66 71 70 64 66 69 72 81 93 99 98 98 97 93 84 76 76 84 95
1 1 1 2 2 2 2 2 2 1 2 2 2 2 2 2 3 3 3 3 4 4 5 5 6 8 9 10 11 13 13 13 13 16 18 21 22 24 25 27 28 29 31 32 32 34 35 35 36 38 39 40 41 44 45 44 45 48 52 54 57 59 62 65 66 68 70 71 70 70 69 67 71 77 82 88 93 93 93 94 88 78 72 75 84 94 100
2 2 2 2 2 2 2 1 2 2 1 2 2 2 2 2 2 3 3 3 4 4 5 6 7 8 10 11 12 13 13 12 14 16 19 20 22 24 25 26 28 30 32 32 33 34 35 36 37 37 39 41 43 44 45 47 49 51 51 54 58 60 65 69 69 70 73 72 67 68 72 76 82 86 87 89 89 87 84 80 73 70 75 86 96 101 102
2 2 3 2 2 2 2 1 2 2 1 2 2 2 2 3 2 3 3 3 4 5 5 6 8 9 11 12 12 13 12 12 14 16 18 20 21 23 24 25 27 30 32 33 34 34 35 36 37 38 40 42 44 45 46 49 52 52 51 54 58 60 64 67 65 62 63 65 67 75 82 84 85 85 84 85 83 78 72 69 72 80 88 95 100 102 103
3 3 2 2 2 2 2 2 2 2 2 2 2 2 3 3 3 3 4 4 4 5 6 7 8 10 11 12 12 12 11 12 14 16 17 19 21 22 23 25 27 30 32 33 34 35 36 37 38 39 41 43 45 47 49 52 54 53 52 53 57 59 62 63 60 60 66 73 78 85 88 87 85 82 79 76 71 68 71 76 83 91 94 96 100 102 103
3 2 2 3 2 2 2 2 2 2 2 2 2 3 3 3 3 4 4 5 5 6 6 7 9 10 12 12 12 12 11 12 14 16 17 19 21 22 23 24 26 29 32 33 34 36 37 38 40 40 42 45 47 48 51 53 53 53 54 56 59 63 65 64 64 71 79 82 85 86 80 73 75 77 73 68 66 70 78 84 88 92 93 93 97 100 104
3 2 2 2 2 2 2 2 2 2 2 2 3 3 3 4 4 4 5 5 6 6 7 8 9 11 13 13 12 11 11 12 14 15 16 18 20 21 22 23 25 29 31 33 35 36 37 39 41 42 44 47 49 49 51 54 54 55 58 60 62 64 65 68 75 83 86 86 89 87 74 63 66 69 67 65 69 77 83 86 88 90 91 92 92 90 92
2 2 2 2 2 2 2 2 3 3 3 3 3 4 4 4 5 6 6 6 6 7 8 8 10 12 13 13 11 11 11 12 14 15 16 17 19 21 21 22 25 28 31 33 35 37 39 41 42 44 46 48 50 52 53 55 58 59 60 63 66 65 67 76 87 93 94 94 95 93 86 77 71 68 65 68 75 81 84 86 87 89 93 97 87 64 49
2 2 2 2 3 3 3 3 3 3 3 4 4 4 5 6 6 7 8 7 7 8 9 10 11 13 13 12 11 11 11 13 13 14 15 16 19 21 21 21 24 27 31 33 35 37 40 42 43 46 48 49 52 53 55 60 62 61 65 70 70 68 76 91 98 98 98 96 90 86 86 80 71 66 68 72 79 83 83 85 90 93 89 77 57 33 18
3 3 3 3 3 3 3 3 3 3 4 5 6 7 7 7 8 9 9 8 8 9 10 11 12 13 13 12 11 11 12 13 13 13 14 16 19 20 20 21 23 26 30 33 35 38 40 42 45 48 49 52 54 55 59 64 64 65 72 75 71 73 87 98 100 98 96 92 84 77 74 70 66 68 72 77 81 83 83 88 92 81 56 32 18 13 14
4 4 5 5 4 5 5 5 6 8 9 10 11 11 10 10 11 11 9 8 9 10 11 12 12 13 13 11 11 12 13 13 13 13 14 16 19 20 20 21 22 26 29 32 35 38 39 43 47 49 50 54 56 58 63 67 67 73 79 75 71 80 92 95 96 96 91 84 77 71 67 66 69 71 74 78 80 82 86 89 76 45 17 9 11 14 16
12 13 13 13 13 14 14 15 16 17 18 18 17 15 13 13 13 11 9 9 10 11 12 12 13 13 12 11 12 13 13 14 14 13 14 16 19 20 20 20 22 25 29 32 35 37 39 44 48 49 52 55 57 62 66 69 73 79 78 71 74 87 93 91 92 90 80 73 69 66 64 68 72 73 76 78 81 84 83 68 39 14 6 10 14 15 17
20 21 20 20 21 21 21 22 23 23 22 22 19 18 17 15 13 10 9 10 12 12 12 13 13 13 12 12 13 14 14 15 14 14 15 17 19 20 20 20 22 25 28 32 34 36 40 45 47 50 53 56 59 65 68 70 78 81 73 70 81 91 91 89 86 78 70 68 66 64 67 71 74 77 80 80 82 80 63 35 12 7 10 12 12 14 17
24 24 23 22 23 23 24 25 25 24 24 22 20 19 17 14 11 11 11 12 13 13 13 14 14 13 12 12 13 15 16 16 15 15 16 17 19 20 20 20 22 25 27 31 34 35 40 44 47 50 54 57 62 67 68 73 81 79 69 73 87 93 91 89 80 69 66 67 66 67 72 75 77 79 79 78 77 65 39 15 7 9 10 11 13 15 14
29 28 27 25 25 25 26 27 26 25 24 22 20 18 15 12 11 12 12 13 13 13 14 14 13 13 12 12 13 15 17 17 16 16 16 18 20 20 20 20 22 25 27 30 32 35 39 43 47 51 54 58 64 69 71 77 81 75 70 79 90 92 90 86 74 64 65 67 67 71 75 77 78 78 76 73 64 42 19 8 9 10 10 12 14 13 13
33 32 31 28 27 26 27 27 26 25 23 21 19 16 13 12 13 13 13 14 14 13 14 15 13 13 13 12 14 17 18 18 17 16 17 19 20 21 21 21 22 25 27 28 31 35 38 43 47 51 55 59 66 71 75 80 80 73 74 84 90 90 90 83 69 62 64 67 69 72 74 76 77 76 72 61 41 18 7 8 10 11 12 14 13 13 14
34 35 34 32 28 27 28 28 26 24 22 19 17 16 14 14 15 15 14 15 15 14 15 14 13 13 14 14 15 18 19 19 18 18 18 20 21 21 21 21 22 25 26 26 29 34 38 42 47 51 55 61 68 73 79 83 79 73 78 88 91 92 92 83 68 62 65 67 68 70 70 71 71 68 60 43 21 7 7 9 10 12 15 15 14 14 15
33 35 36 34 31 28 28 27 25 23 21 19 18 17 17 17 16 16 15 15 15 14 15 14 13 14 15 16 18 20 21 20 19 19 20 21 22 23 22 22 23 25 25 25 29 34 36 41 47 51 55 62 70 75 80 82 77 74 83 91 92 92 90 78 65 62 64 64 62 64 65 65 64 61 50 29 10 6 9 10 12 16 17 14 14 15 15
33 34 36 36 33 29 27 26 25 23 22 20 19 19 19 18 17 16 16 15 15 14 15 16 15 16 17 18 20 21 22 22 20 20 22 23 23 23 22 22 25 26 24 25 30 33 34 39 45 49 55 63 70 75 78 78 75 78 87 93 93 93 88 75 65 65 67 65 65 69 71 70 67 59 40 18 6 7 10 11 14 16 14 13 15 16 15
32 33 35 36 35 30 26 26 27 25 22 21 21 21 20 19 18 17 16 16 15 16 17 19 19 19 20 21 21 22 24 23 21 22 23 24 24 24 22 23 26 26 24 25 30 32 32 37 43 48 54 62 69 73 76 75 77 83 90 93 93 93 85 72 65 68 71 71 75 79 80 78 72 55 29 9 5 8 10 11 13 14 13 14 15 15 15
32 33 35 37 36 31 26 26 27 25 23 22 23 22 20 19 18 18 18 18 18 20 22 24 23 22 24 24 23 23 24 24 23 23 24 24 26 24 22 23 27 26 24 26 29 29 30 34 40 46 53 61 66 71 73 74 79 87 91 92 93 90 79 68 66 70 71 73 77 79 78 76 67 43 17 5 7 9 9 11 13 13 13 14 14 15 17
32 33 34 37 37 32 27 25 26 25 23 23 23 22 21 21 23 24 23 22 23 25 27 28 26 25 26 26 25 25 25 25 25 25 25 26 27 24 22 24 27 26 26 28 29 28 29 32 37 44 51 58 64 68 71 75 81 86 89 90 90 84 72 65 67 70 70 72 76 76 74 69 54 27 8 6 9 9 10 12 13 12 13 14 14 16 17
32 33 34 37 38 34 28 25 24 23 23 23 24 26 26 27 30 31 30 29 30 30 31 31 30 27 27 27 26 26 26 27 27 26 26 27 27 25 24 25 26 26 27 29 28 26 27 31 35 42 50 57 63 67 70 73 78 83 86 88 85 76 66 65 68 70 70 74 76 74 71 63 41 17 5 7 9 9 11 12 12 12 13 14 15 16 16
33 34 35 38 39 36 30 25 24 24 26 28 31 34 35 36 37 37 36 34 34 34 33 33 31 29 27 28 28 27 28 28 28 28 28 28 27 26 27 27 27 28 30 29 27 26 27 30 33 40 48 55 60 63 67 72 77 81 84 84 79 69 64 66 69 70 72 76 75 72 68 55 31 11 5 8 8 9 11 12 12 12 13 14 15 16 16
35 36 37 39 40 37 32 28 28 30 33 36 39 42 42 42 42 42 39 37 37 36 35 34 32 29 28 29 29 29 30 30 29 29 30 29 28 27 28 29 29 30 30 28 27 27 27 28 31 38 46 52 55 58 63 69 73 76 79 78 71 64 63 67 69 70 72 74 72 69 64 48 24 8 6 8 8 8 10 11 12 12 13 13 15 15 16
38 39 39 40 40 38 35 34 36 38 39 42 44 45 46 45 45 43 41 39 39 37 35 34 32 31 30 31 31 30 31 32 30 30 32 31 29 29 31 32 31 30 28 28 28 28 26 26 30 36 43 46 48 52 60 66 69 73 75 72 65 62 64 67 69 70 72 73 70 67 60 42 19 6 6 8 8 10 11 12 12 12 12 13 14 14 15
38 39 40 40 41 41 40 40 42 43 43 44 45 45 45 44 43 42 40 39 38 36 34 34 34 33 33 33 33 33 34 33 32 32 34 33 31 32 34 34 31 29 28 29 29 27 24 25 29 34 38 40 42 49 58 64 67 70 71 66 61 61 64 67 69 71 72 72 70 67 57 37 15 6 7 8 9 10 12 12 12 12 13 13 14 14 15
38 39 40 41 42 42 42 42 43 44 43 44 44 43 42 42 41 40 39 38 37 36 35 36 35 35 35 35 35 35 36 35 34 34 35 35 34 34 35 33 31 29 30 31 30 27 25 26 29 33 35 37 40 48 56 62 65 67 66 62 60 62 65 68 69 71 72 72 69 65 53 32 13 5 7 8 9 11 12 12 12 13 13 14 14 14 14
37 37 38 40 41 41 41 41 42 42 42 42 42 41 40 40 40 39 38 38 38 37 37 37 37 36 36 37 37 38 37 37 36 37 38 37 36 36 35 34 33 33 34 33 30 28 27 28 30 33 34 35 39 47 55 60 62 63 62 60 60 63 66 68 70 71 72 71 68 62 50 29 11 6 7 8 9 11 12 12 12 13 13 14 14 14 14
35 35 36 38 39 40 40 40 40 40 41 41 41 40 40 40 40 39 39 39 39 39 39 38 38 38 38 39 39 40 39 38 39 41 41 40 39 38 38 36 36 37 37 35 32 30 30 30 30 32 34 35 39 48 55 59 60 60 59 59 61 64 66 68 70 72 72 70 67 61 47 27 11 6 7 8 8 11 12 12 12 13 13 14 14 14 15
31 33 35 36 38 39 39 40 40 40 40 40 41 41 41 41 40 39 39 39 40 39 39 39 39 39 40 41 42 43 41 40 42 45 45 44 43 42 42 41 41 41 40 39 36 34 32 32 31 32 33 35 41 49 56 58 58 58 58 60 63 65 67 69 71 72 71 69 66 60 46 25 10 6 7 7 9 12 13 13 13 13 12 14 15 15 15
30 30 31 33 36 37 38 39 40 40 40 40 40 40 40 40 40 39 40 40 40 40 40 40 41 42 43 44 45 46 44 44 45 48 49 48 47 47 47 48 48 47 45 43 40 37 35 34 33 33 34 37 43 51 56 57 56 56 58 61 64 66 68 70 71 72 72 69 65 59 44 25 11 7 7 7 9 12 12 12 12 12 12 13 15 15 15
34 32 31 31 32 34 35 36 37 38 37 37 37 37 38 39 40 39 39 40 41 41 41 42 43 44 46 47 48 49 49 48 49 50 51 51 51 51 52 52 52 50 48 46 43 40 38 36 34 34 35 39 45 52 56 56 55 56 59 62 65 67 69 70 71 72 71 69 65 58 44 25 11 7 7 8 9 10 11 11 11 11 12 13 15 16 16
Wind_Speed
20 20 19 19 19 19 18 17 17 17 16 16 15 14 14 14 15 16 14 14 14 12 13 15 15 15 16 15 14 13 11 10 11 12 12 12 13 13 13 15 17 17 18 19 20 23 20 17 21 22 22 24 25 25 26 27 27 25 23 22 22 21 20 25 33 36 33 27 20 14 14 20 25 27 32 32 29 29 24 22 25 23 21 22 14 11 23
19 18 18 17 17 17 17 17 18 18 18 17 16 14 15 17 18 17 15 15 15 14 16 16 15 16 16 14 13 12 12 12 12 12 13 13 14 14 14 16 17 18 19 20 21 22 19 19 23 23 24 27 26 26 28 28 26 25 24 22 22 19 17 22 28 27 27 25 21 22 27 29 33 36 35 32 32 32 27 26 25 21 25 21 8 12 34
17 17 17 17 17 16 16 16 17 18 18 18 18 16 16 17 19 18 17 16 15 17 19 17 16 17 16 14 14 13 13 13 13 13 13 14 15 15 16 17 18 19 20 21 22 22 21 23 24 24 26 28 27 28 29 27 27 27 24 23 23 21 20 22 19 10 11 16 18 26 34 37 39 38 32 32 35 32 28 27 20 18 27 23 14 25 47
19 19 19 19 19 19 19 18 18 18 18 18 18 17 16 17 17 18 18 16 15 18 19 17 16 17 15 15 16 15 13 13 13 14 14 15 16 16 17 18 19 20 21 22 22 24 25 24 24 25 27 28 28 29 28 27 27 25 24 24 23 23 23 23 21 19 20 23 27 30 33 37 40 37 33 34 35 34 30 25 23 27 32 31 32 38 46
23 23 23 23 23 23 23 23 22 21 20 19 18 16 16 16 16 15 15 15 16 18 18 17 16 16 15 16 16 16 15 14 13 14 15 16 17 17 17 19 20 20 22 23 24 25 25 24 24 26 27 28 28 27 27 26 24 24 25 25 23 25 27 25 25 27 26 28 32 32 31 34 35 33 37 40 37 35 32 29 34 37 28 30 44 44 39
28 28 28 28 27 27 26 26 25 24 23 21 20 18 17 18 18 17 15 15 16 17 17 17 16 16 16 17 16 16 16 15 14 14 16 17 17 18 19 20 21 22 23 24 25 26 26 26 26 27 28 29 28 28 27 24 24 26 27 26 25 26 28 27 27 30 30 31 33 32 30 30 31 34 40 39 33 32 34 34 38 36 29 35 48 45 41
30 30 30 29 29 28 27 26 25 24 23 22 20 19 18 18 18 18 17 17 17 17 16 16 16 16 16 16 16 16 16 16 15 15 16 17 18 18 20 21 22 23 24 25 26 27 28 29 29 29 30 29 29 29 26 23 26 28 27 27 27 25 27 28 28 33 37 36 33 31 28 30 37 39 34 30 30 31 33 34 35 34 37 42 43 41 45
30 29 29 28 28 27 26 25 25 24 23 22 21 20 20 19 19 18 17 17 17 17 16 16 15 15 15 14 15 15 15 16 16 15 16 17 18 19 20 21 22 23 24 25 25 25 26 28 29 30 30 29 28 27 25 24 26 27 26 28 27 25 28 29 29 36 40 37 35 34 32 36 40 34 27 30 35 34 32 33 34 35 40 43 41 43 52
29 28 28 27 26 26 25 24 24 23 22 21 20 20 20 20 20 19 17 17 17 17 16 16 15 14 14 13 14 14 15 16 16 16 17 18 19 19 21 21 22 23 23 24 25 25 25 26 26 27 27 26 25 24 23 23 24 25 25 26 26 27 29 31 31 35 39 40 37 37 40 41 34 28 32 38 36 33 33 33 34 36 41 43 43 47 55
26 26 26 25 25 24 23 23 22 21 21 20 19 19 20 19 20 20 18 17 17 16 15 15 14 14 14 13 14 14 15 16 17 17 17 18 19 20 21 22 23 23 24 24 25 26 26 25 25 24 23 23 22 21 20 20 21 23 23 24 26 26 28 32 30 30 38 43 38 38 40 31 23 29 39 38 32 32 34 35 38 41 40 41 45 50 52
23 23 23 23 22 22 21 21 21 20 20 19 19 19 19 18 19 19 18 18 17 16 15 14 14 14 14 14 14 14 15 16 17 17 17 19 20 21 22 23 24 24 25 26 27 26 26 26 25 23 22 21 21 19 18 19 20 21 23 24 26 26 28 31 27 26 36 42 40 38 27 14 21 37 39 31 28 31 36 42 46 46 44 46 49 48 46
21 21 20 20 20 19 19 19 18 18 18 18 18 18 18 18 18 18 17 17 17 15 14 14 14 13 14 14 14 14 15 16 17 17 18 19 20 21 22 24 25 25 25 27 28 28 27 27 25 24 23 22 21 20 19 21 21 23 25 24 24 27 28 29 28 28 34 38 33 23 13 17 34 40 31 26 28 33 44 53 52 48 49 50 44 39 43
21 20 19 19 18 18 17 17 16 16 17 17 18 18 18 17 17 17 16 16 16 15 13 13 14 13 13 14 14 15 15 16 17 18 18 19 20 21 23 24 25 26 27 28 29 29 29 29 27 27 26 25 25 23 22 24 24 25 26 25 25 27 26 27 30 29 30 32 24 14 20 35 39 31 26 27 33 42 52 56 55 53 48 39 34 39 51
20 19 18 17 17 16 16 16 15 15 15 16 17 17 17 16 16 17 16 15 15 15 14 13 13 13 12 14 15 15 16 16 17 17 18 19 20 21 23 25 25 27 28 29 29 30 30 30 30 30 29 29 29 26 25 27 27 26 27 27 28 27 26 27 28 25 24 28 28 28 33 35 29 25 27 32 42 51 52 51 55 49 34 28 37 51 60
17 16 15 15 14 14 14 14 14 15 15 15 15 16 17 16 15 15 16 15 14 14 13 12 12 12 12 13 15 16 16 17 17 17 18 20 21 22 24 25 25 27 28 29 29 29 29 29 30 30 29 28 28 26 25 27 28 27 28 29 30 30 29 27 25 25 27 27 26 23 20 20 23 28 31 38 49 54 50 50 48 36 27 37 52 58 59
15 14 14 14 13 13 12 12 13 15 15 15 15 15 15 15 14 14 15 15 14 13 13 12 11 12 11 12 14 15 15 17 18 18 19 20 21 24 25 25 26 27 28 29 28 28 27 26 27 26 23 23 24 24 25 27 29 29 30 31 31 29 29 27 24 26 29 27 20 14 12 19 28 32 38 48 53 53 48 40 35 35 42 54 59 57 57
13 14 14 14 14 13 12 12 14 15 16 16 15 14 14 14 13 14 14 15 15 13 13 12 11 12 11 12 14 16 16 17 18 18 20 21 22 24 24 25 26 27 27 28 28 28 27 25 25 24 21 21 22 24 25 27 29 31 32 32 31 28 27 26 25 27 30 28 23 19 21 27 31 36 46 53 54 52 40 25 30 49 59 58 57 57 57
12 13 13 14 14 13 12 13 15 16 17 16 15 14 13 13 13 13 14 15 15 14 13 12 11 11 11 12 14 16 16 18 19 19 21 21 23 25 24 25 26 26 26 27 28 28 27 25 25 24 22 21 23 23 25 27 29 31 31 30 31 30 26 25 26 28 29 27 26 28 30 31 34 42 52 54 52 47 35 28 43 61 61 56 56 56 56
12 13 13 13 13 13 13 15 16 17 16 16 14 13 12 12 12 13 13 14 15 14 13 12 11 11 11 12 14 16 16 18 19 20 21 23 24 25 24 25 26 26 26 27 27 27 27 26 26 24 21 23 25 24 24 27 28 28 28 29 31 29 26 26 28 28 26 26 28 30 29 31 40 49 51 50 48 43 39 46 57 59 57 57 57 55 57
13 12 13 13 13 15 16 16 17 16 15 14 13 12 11 12 12 12 13 14 15 14 12 11 11 11 11 12 14 16 16 18 19 21 22 23 24 25 25 25 27 27 27 27 27 26 26 27 26 23 21 24 26 25 25 28 27 25 26 27 27 26 27 29 28 27 27 26 22 20 23 35 47 50 49 49 49 46 50 56 57 55 55 56 55 56 58
12 12 12 13 15 16 16 16 16 15 14 13 12 11 11 11 11 12 13 13 14 13 12 11 11 11 11 12 14 16 17 18 20 21 23 24 24 25 26 27 28 28 27 27 27 26 26 25 24 23 22 23 24 24 26 29 27 25 26 27 25 25 27 29 28 26 27 26 23 24 32 42 47 47 48 51 52 52 54 56 55 54 54 54 55 58 57
11 12 13 15 16 16 16 16 15 14 13 12 11 11 11 11 12 12 13 13 13 13 11 11 11 10 10 12 14 16 17 19 20 21 22 24 24 24 25 26 27 26 25 25 24 23 23 23 23 23 23 24 25 24 25 26 26 25 27 27 27 27 27 28 29 29 28 30 33 39 44 46 46 48 49 50 51 52 53 53 53 53 52 53 56 57 57
12 13 15 16 17 17 17 16 15 13 12 11 11 11 11 11 12 12 13 14 13 12 10 10 11 10 11 13 15 16 17 19 19 20 21 22 23 23 24 24 25 24 24 24 23 23 23 22 22 23 23 24 25 25 26 25 25 26 27 25 25 27 28 27 30 33 35 38 40 42 46 49 50 49 48 49 51 52 51 51 51 52 52 54 55 56 58
13 15 16 17 17 17 17 16 14 12 12 11 11 11 11 11 12 12 13 14 13 11 10 10 10 10 11 13 15 16 17 19 19 20 21 22 22 22 23 24 24 23 23 23 23 23 23 22 22 22 22 22 22 22 23 24 24 25 27 27 28 30 30 30 33 37 42 45 44 44 47 50 50 49 49 50 51 50 50 51 52 53 54 54 55 57 58
15 16 16 17 17 17 16 14 12 11 11 10 10 11 11 12 12 12 13 13 12 10 10 10 10 10 11 13 14 16 18 19 19 20 21 21 22 22 23 24 23 23 23 23 22 22 22 22 22 22 21 22 21 19 19 21 23 24 26 28 31 31 31 34 39 42 43 45 47 48 49 49 47 48 50 51 50 51 52 52 52 53 56 57 58 58 58
16 17 17 17 16 15 14 12 11 11 10 10 11 12 12 12 12 12 12 12 11 10 10 10 10 10 11 13 14 16 18 19 19 20 21 21 22 22 23 23 23 22 22 22 22 22 22 22 22 21 21 21 21 19 18 19 21 22 24 27 30 31 34 38 42 44 45 47 49 51 52 51 49 48 49 50 50 52 53 53 54 56 58 60 60 59 58
16 16 16 15 14 13 11 11 10 10 10 11 12 12 12 12 12 12 12 12 11 10 10 10 10 9 10 13 15 16 18 19 19 20 21 21 21 21 22 22 22 21 21 21 21 21 22 22 22 21 21 22 21 20 19 19 20 22 24 28 31 34 38 41 42 44 47 48 47 48 50 52 52 51 50 50 51 52 54 55 56 58 59 60 60 60 58
14 13 13 12 12 11 11 10 11 11 11 12 12 12 12 12 12 12 12 11 11 10 9 10 10 9 10 13 15 17 18 19 19 20 21 21 21 21 21 22 21 20 20 20 20 21 23 23 22 20 21 23 23 20 20 21 22 23 26 30 34 36 39 41 42 43 44 44 44 45 46 48 50 50 50 51 52 54 55 56 57 59 60 59 59 58 57
12 11 10 10 10 10 11 11 12 12 12 12 13 13 13 12 12 12 11 10 10 9 9 10 10 10 11 14 16 17 19 20 19 20 21 21 21 21 21 21 20 19 19 19 19 22 24 23 22 21 22 24 24 22 22 23 24 26 29 33 34 34 37 40 42 42 43 43 43 44 45 46 48 49 50 51 52 54 56 57 59 60 59 58 56 56 56
12 11 11 11 10 11 12 12 13 13 13 13 13 12 12 12 11 11 10 9 10 10 10 10 11 10 11 14 16 18 20 20 20 20 21 21 20 20 20 21 19 19 19 19 19 22 24 23 21 20 23 26 25 23 23 25 26 29 33 35 35 35 39 42 42 43 43 42 42 43 43 45 47 49 51 52 53 55 57 59 60 60 58 56 56 56 58
12 11 12 12 12 13 13 14 14 14 13 13 12 12 11 11 10 10 9 9 10 10 10 11 12 11 12 15 17 19 20 20 20 20 20 20 20 19 20 21 19 19 19 18 18 22 24 22 20 21 23 26 26 24 24 26 30 34 36 36 36 39 42 43 43 41 41 41 43 44 44 45 48 52 54 55 56 57 59 60 60 58 56 56 57 58 59
12 12 13 13 13 13 13 13 13 13 12 12 11 10 10 9 9 9 9 10 10 10 10 11 13 13 13 15 17 19 20 20 20 20 20 20 20 20 20 20 19 19 19 17 18 22 24 22 21 22 24 27 27 25 26 29 33 37 37 36 38 42 44 44 43 41 39 41 44 47 49 50 51 53 55 56 57 59 61 61 59 57 56 57 58 58 59
13 13 14 14 14 13 13 12 12 11 11 10 10 9 9 8 8 8 9 9 10 10 10 11 13 14 14 15 17 19 20 20 20 21 20 20 20 20 20 19 18 18 19 17 18 21 24 22 21 23 25 28 28 26 27 31 35 37 37 37 40 44 45 44 43 42 41 42 43 46 50 52 52 53 54 56 59 61 61 59 57 57 57 58 59 60 60
14 14 14 15 15 14 14 13 12 11 10 9 9 8 7 7 7 8 9 10 10 10 10 12 14 15 16 16 17 19 20 20 20 21 21 20 19 19 20 19 18 18 18 17 18 21 23 23 22 23 26 29 30 29 29 33 37 38 38 39 43 46 47 47 45 44 44 44 44 45 48 50 52 54 56 59 61 61 59 57 57 58 59 60 60 61 61
15 15 15 16 16 15 14 13 12 11 10 9 8 7 7 7 8 8 9 10 10 10 11 13 15 16 17 17 18 20 21 20 21 21 21 20 20 20 20 19 18 18 18 16 18 22 23 22 23 25 27 30 32 32 33 36 39 40 40 43 46 48 49 50 48 46 45 45 46 47 49 51 54 56 59 61 61 60 58 56 57 58 60 61 61 61 61
16 16 16 16 16 16 15 14 12 11 9 8 7 7 7 7 8 9 9 10 10 11 12 14 16 17 19 19 20 21 21 20 21 21 21 20 20 20 20 19 17 18 18 16 18 22 24 23 23 25 28 32 34 34 35 38 41 41 42 45 47 49 49 49 48 47 46 46 47 50 52 54 56 58 60 61 60 57 56 56 57 59 60 61 61 61 62
16 16 16 16 16 16 15 13 11 10 8 8 7 8 8 8 9 9 10 10 11 11 13 15 16 18 20 21 21 21 21 21 22 21 20 20 20 20 20 19 18 18 17 16 18 23 24 23 23 26 29 33 36 36 37 39 41 42 44 46 47 48 48 47 46 47 48 49 51 53 55 57 58 60 61 60 58 56 56 56 58 59 60 60 61 61 62
16 16 16 15 15 15 14 12 10 9 8 7 7 8 8 9 9 10 10 11 11 12 14 16 17 19 20 22 22 22 22 22 22 21 21 20 20 21 20 19 18 19 17 15 19 24 25 23 24 26 31 35 37 38 39 40 41 42 44 46 47 47 47 45 45 46 49 51 53 55 56 57 59 60 60 58 56 54 55 56 57 58 59 59 60 60 61
16 15 15 14 14 14 13 11 10 9 8 7 8 8 8 9 10 10 11 11 13 14 15 18 19 21 22 23 23 23 22 22 22 22 21 21 21 22 21 19 19 19 17 16 20 25 25 24 24 28 33 37 39 39 40 41 41 42 44 45 46 46 45 44 43 45 46 49 50 51 53 55 58 59 58 56 54 53 54 55 56 57 58 58 59 60 61
16 15 13 12 12 13 12 11 9 9 7 7 8 9 9 10 11 12 12 13 15 16 18 20 21 22 23 23 24 23 23 23 23 22 21 21 22 22 21 20 20 19 17 18 22 25 24 24 26 29 35 39 40 40 41 41 42 43 44 44 45 45 44 42 42 43 45 46 48 49 50 53 56 56 54 53 53 53 54 55 56 57 58 58 59 60 61
16 14 12 11 11 11 11 10 9 8 7 7 9 10 10 11 12 14 14 15 17 18 20 21 22 23 23 24 24 24 23 23 23 22 21 22 23 22 20 20 20 18 17 20 23 24 24 24 27 31 37 41 41 41 41 42 42 43 44 44 45 44 42 42 42 43 45 47 48 49 51 54 55 54 52 51 51 53 54 56 56 57 57 58 59 60 60
15 12 11 9 9 9 9 9 8 8 7 8 10 12 12 12 14 15 15 16 18 19 20 21 22 23 24 24 24 23 23 23 22 22 22 23 23 22 20 20 19 18 19 22 23 23 24 25 29 34 39 41 41 41 42 42 43 43 43 44 44 43 42 42 43 44 46 47 48 50 52 54 54 53 51 50 50 52 53 55 56 56 57 57 58 59 60
13 11 9 8 8 8 8 8 8 8 8 9 11 13 13 14 15 16 16 17 18 19 20 21 22 23 24 24 23 23 23 23 22 22 22 23 23 21 20 20 20 20 21 22 23 23 24 27 31 36 40 41 41 42 42 43 43 43 43 44 43 42 42 42 43 44 46 47 49 51 53 54 53 51 50 49 50 51 53 54 55 56 56 57 58 59 60
12 10 8 7 7 7 7 7 8 9 10 11 13 14 14 15 16 16 17 17 18 19 20 21 22 23 23 23 23 22 22 22 22 22 22 23 22 21 20 21 21 21 21 22 23 24 27 30 35 38 40 40 41 42 43 44 44 43 43 43 42 42 42 42 43 45 46 48 49 51 53 53 52 50 48 48 50 51 53 54 55 55 56 57 57 58 59
12 10 8 7 7 7 7 7 8 10 11 12 14 15 15 16 16 17 17 17 18 19 21 22 22 23 22 22 22 21 21 22 22 21 22 23 22 20 21 22 22 22 22 23 25 27 30 34 37 39 40 40 41 43 44 44 44 43 42 42 42 42 42 43 44 46 47 48 50 52 53 53 51 49 48 48 50 51 53 54 55 56 56 57 57 58 59
12 10 9 7 7 8 8 8 10 11 12 13 14 15 16 16 16 16 17 17 18 20 21 21 22 22 22 22 21 21 21 21 21 21 22 23 22 21 22 22 22 22 23 25 28 31 34 37 38 39 40 41 42 43 44 44 44 43 42 41 41 42 43 44 45 46 48 49 51 53 53 52 51 49 48 48 49 50 52 53 55 56 56 57 57 58 59
13 11 9 8 8 9 10 10 11 12 13 14 15 15 15 15 15 16 16 17 18 19 20 21 21 21 21 21 21 21 21 21 21 21 22 23 22 21 21 21 22 23 25 27 31 34 36 37 38 39 41 42 42 43 44 44 43 42 41 41 41 43 43 43 45 47 48 49 51 52 53 52 50 48 48 48 49 50 51 53 54 55 56 56 57 57 58
13 12 11 10 10 11 12 12 12 13 14 14 14 14 14 14 15 16 16 17 18 19 20 21 21 21 21 22 21 20 20 21 21 21 23 23 23 22 21 22 23 25 27 30 34 36 37 37 38 39 40 41 42 43 43 43 42 41 40 40 41 42 43 44 45 47 48 49 51 52 52 51 50 48 48 48 48 49 51 52 53 54 54 55 56 57 57
15 13 13 13 13 13 13 13 13 14 14 14 14 14 14 14 15 16 16 17 18 19 20 21 21 21 22 22 22 20 20 21 21 21 22 23 22 22 23 24 26 28 30 32 35 36 36 37 38 39 39 41 42 42 42 42 41 40 39 40 41 42 43 44 46 47 48 49 50 52 52 51 50 48 48 48 48 49 50 51 51 53 54 55 56 56 57
14 14 14 14 14 14 14 14 14 13 14 14 14 14 14 14 15 16 17 18 19 19 20 21 21 21 22 23 22 21 21 21 21 21 22 23 23 24 25 27 28 30 32 33 35 35 36 36 37 38 39 40 41 41 42 41 40 39 39 40 41 42 43 44 45 46 47 48 50 51 51 50 49 48 48 48 48 48 49 49 51 53 54 55 56 56 57
14 15 15 15 15 15 15 14 13 13 13 14 14 14 14 14 15 16 17 18 19 19 20 20 21 22 23 23 22 21 21 20 20 21 22 23 24 25 27 28 29 31 32 33 33 34 35 35 36 37 38 39 40 40 41 40 39 39 39 39 40 41 42 43 45 46 47 48 49 50 50 49 49 48 47 47 47 47 47 49 51 52 54 55 55 56 56
15 15 15 15 15 15 15 14 14 14 14 14 14 15 15 15 15 17 18 19 19 19 20 20 20 21 22 22 22 22 22 21 21 22 23 23 24 26 27 28 29 30 31 32 33 34 35 35 36 37 38 38 39 40 40 39 39 39 38 39 40 41 42 43 44 45 46 47 49 50 49 49 48 47 46 46 46 47 48 49 51 53 54 54 55 55 55
Wind_Direction
107 107 107 107 107 105 103 101 97 94 92 88 86 87 93 95 91 89 92 91 87 83 84 86 86 85 83 80 78 74 69 60 49 40 33 26 19 15 10 5 5 2 359 359 355 352 350 348 348 347 344 345 341 336 337 334 333 331 325 322 320 318 315 309 309 315 320 325 325 308 305 316 318 315 312 312 310 303 291 282 286 286 279 278 273 272 283
106 106 107 107 106 105 102 100 96 93 90 86 85 87 93 95 92 90 89 87 88 88 83 81 81 81 79 75 73 69 62 55 45 36 30 23 18 14 9 6 4 1 358 357 354 353 350 345 346 346 342 342 341 338 337 335 334 331 325 320 318 317 314 311 314 321 327 331 330 322 320 320 317 316 316 315 312 307 295 285 284 284 282 276 235 262 287
101 101 101 100 99 99 98 99 98 95 91 89 88 87 89 91 92 91 87 83 84 84 80 76 73 72 72 70 67 61 54 47 39 32 25 20 17 12 8 6 2 359 358 355 353 354 350 344 344 344 341 340 341 339 337 336 333 331 327 322 316 311 307 308 308 304 313 314 311 315 315 312 311 313 316 316 312 307 296 287 280 278 285 279 244 267 290
96 96 96 96 95 93 93 94 95 95 93 90 89 88 86 86 86 85 84 79 74 73 74 71 66 64 64 62 58 53 47 40 33 26 21 17 15 11 7 4 1 358 356 354 353 352 349 344 341 341 340 340 340 339 337 335 333 332 329 324 318 309 305 308 301 288 290 295 300 308 308 305 307 312 315 315 313 308 299 285 277 282 287 286 280 284 293
94 94 95 94 93 91 89 89 88 89 89 88 87 85 84 83 80 78 78 75 67 66 67 65 62 60 58 55 51 45 40 34 27 22 18 15 13 10 6 2 359 357 355 354 353 349 347 343 340 340 340 339 340 339 336 335 335 335 331 328 322 311 307 311 307 299 299 302 306 310 308 303 305 309 314 316 314 309 299 287 290 294 289 289 297 299 299
95 94 94 92 90 89 87 86 85 84 83 82 81 80 78 77 75 72 72 71 66 63 62 59 55 53 51 49 44 39 34 29 24 19 15 12 10 7 4 1 358 357 355 353 350 347 344 344 343 342 341 341 341 340 339 338 337 337 333 329 325 315 310 314 313 308 308 309 312 315 313 308 307 309 315 318 317 311 304 301 304 299 283 287 299 302 301
93 92 91 90 88 87 85 83 83 81 79 78 76 74 72 71 71 68 65 65 63 59 57 54 49 46 45 43 39 34 30 25 21 17 14 11 8 4 2 1 358 357 354 351 348 346 344 343 344 342 341 342 341 340 341 340 338 338 334 329 326 317 312 315 313 309 312 316 320 321 317 312 312 315 320 323 321 316 312 312 312 300 290 290 294 297 303
91 89 88 86 85 84 82 81 80 79 77 75 72 70 67 65 66 64 59 58 58 55 52 50 46 42 40 37 34 30 26 22 18 15 13 8 5 3 2 0 358 355 353 349 347 346 344 341 341 341 340 341 341 340 341 340 339 338 335 331 327 319 315 316 314 310 315 324 327 325 321 317 316 320 327 328 327 323 318 316 313 307 302 299 298 302 310
91 90 87 85 82 80 77 76 75 74 73 72 69 66 64 61 60 60 55 51 52 51 48 46 42 38 35 32 29 25 21 18 15 13 10 5 4 2 359 359 358 353 351 348 346 346 344 341 341 339 338 340 342 341 340 342 340 338 337 332 326 321 317 317 317 312 316 327 329 325 323 320 319 325 330 330 331 327 320 318 316 311 306 305 307 312 315
92 90 88 85 82 77 74 70 67 66 66 66 65 62 60 57 54 54 51 47 47 47 43 41 38 34 32 28 25 21 17 14 12 10 7 3 2 0 357 357 356 352 350 348 347 346 344 342 342 342 341 342 345 344 345 348 343 339 339 334 328 324 317 318 320 311 315 327 329 324 324 323 323 329 329 329 330 326 320 320 320 317 311 309 312 314 315
87 86 84 82 79 75 71 67 62 59 56 57 58 57 55 53 50 49 46 43 43 42 39 36 34 31 30 25 21 19 15 12 10 8 5 2 360 358 356 355 353 352 350 348 348 347 345 345 345 346 347 348 350 352 352 352 348 343 342 338 334 330 321 319 318 307 313 325 327 324 326 325 322 326 328 327 327 327 324 322 322 320 317 314 314 314 317
84 82 80 78 74 70 66 63 59 55 50 47 49 50 49 47 46 44 41 39 39 38 35 32 30 28 26 23 20 17 13 10 9 6 3 1 359 356 355 354 353 352 351 349 349 348 347 349 350 350 353 355 356 359 358 354 353 350 348 344 339 334 327 322 319 311 312 321 327 328 324 317 320 324 328 328 327 327 326 323 322 321 319 317 316 316 319
82 80 77 74 69 64 59 55 52 50 46 40 40 42 42 41 40 40 37 34 34 33 30 28 27 25 22 20 18 15 11 10 8 5 3 1 358 356 355 355 353 352 352 351 350 351 350 351 354 356 357 358 358 0 360 355 353 352 350 346 340 336 331 324 322 319 317 321 326 319 309 316 322 326 329 329 328 329 328 323 322 323 321 317 316 319 322
80 77 73 67 63 58 52 49 45 43 41 35 33 35 36 35 34 33 32 29 29 29 27 24 22 21 19 18 15 12 11 10 7 5 3 360 359 358 356 356 355 354 354 353 352 354 354 354 357 359 359 360 358 356 355 352 350 350 350 346 342 339 334 328 325 323 320 315 311 308 311 318 326 329 331 332 330 331 328 320 319 324 322 318 321 324 325
72 67 62 56 53 50 46 44 41 38 35 32 29 29 30 30 28 28 26 24 23 24 23 20 18 17 16 15 13 10 8 9 8 6 4 1 359 359 358 357 357 356 355 355 355 356 357 358 360 360 359 359 354 346 345 347 346 347 347 346 344 341 337 332 323 320 320 313 308 313 316 319 326 327 330 331 328 329 327 318 318 325 327 323 325 325 325
58 53 49 46 45 44 43 42 38 34 30 27 26 26 24 24 23 22 21 19 19 20 20 18 16 14 14 13 11 9 8 8 8 6 5 2 0 0 360 358 358 358 357 356 356 358 360 2 3 360 357 355 348 339 340 342 342 345 347 345 344 342 338 333 323 320 321 314 305 306 299 307 319 323 326 328 327 328 327 320 317 326 326 324 325 326 326
49 45 43 43 42 43 42 38 31 26 23 21 22 22 20 18 18 17 16 14 15 16 17 16 14 13 13 10 8 8 7 7 7 7 5 3 1 1 1 360 359 359 358 357 357 359 2 3 2 358 355 352 347 341 340 340 340 343 344 343 343 343 340 336 329 327 326 318 305 299 303 313 320 323 326 327 327 329 331 322 318 324 324 324 326 327 329
44 42 41 41 40 38 33 26 18 16 15 14 16 18 15 12 13 12 11 10 11 13 14 14 13 11 11 10 7 7 8 7 7 6 4 3 2 1 1 1 360 359 360 360 359 360 3 4 359 354 351 350 347 343 342 341 339 341 342 341 343 344 342 338 335 331 330 325 313 308 314 322 325 327 327 326 327 331 332 321 319 323 324 325 328 329 330
40 38 35 34 31 23 15 10 7 7 8 8 11 13 10 8 9 7 6 7 8 10 11 12 12 11 10 10 7 7 8 7 6 6 5 3 2 2 2 1 360 360 2 3 1 2 3 2 358 354 349 347 347 345 343 341 340 341 344 343 343 343 340 340 339 334 330 328 318 312 319 328 328 326 326 326 330 333 327 321 322 324 325 327 329 330 331
29 26 21 17 12 6 2 0 1 3 4 5 8 8 4 4 5 2 2 5 5 7 11 11 11 11 10 9 8 7 8 7 6 6 6 4 2 2 2 1 1 2 3 3 3 4 2 359 357 355 349 345 346 345 342 343 345 346 347 345 344 343 340 339 339 334 330 329 322 315 322 327 326 325 325 328 332 330 324 323 325 326 327 329 329 331 332
11 8 4 1 359 356 355 356 358 360 2 2 3 3 360 0 1 359 1 3 3 4 9 12 11 11 10 9 9 9 8 7 7 6 6 5 4 3 3 3 2 3 3 3 4 3 0 357 356 354 348 345 347 347 344 345 348 349 348 347 346 345 342 338 336 335 331 325 320 321 324 324 323 324 325 327 328 327 326 327 328 328 330 331 330 332 334
353 353 351 349 350 351 351 354 357 359 360 360 358 359 358 357 357 358 359 1 2 3 8 12 11 10 11 11 11 11 10 8 8 7 5 5 5 5 4 3 3 2 2 3 4 2 360 358 356 354 351 348 348 348 347 347 348 348 349 349 345 344 345 338 333 332 328 320 321 326 326 325 325 326 328 329 329 330 330 330 329 331 332 333 332 333 334
342 342 343 343 345 347 349 352 356 358 358 358 357 357 355 352 353 356 356 359 2 4 8 12 11 9 12 12 11 11 10 9 8 7 6 6 5 5 4 3 3 3 3 3 4 2 1 0 358 356 354 351 349 349 349 350 348 345 348 350 344 342 344 338 332 331 329 327 331 332 328 328 330 333 334 333 332 332 333 332 332 333 334 335 335 334 334
336 335 337 338 341 345 348 352 356 357 356 356 355 350 348 348 351 355 357 359 2 4 7 10 10 10 13 13 11 11 10 9 8 6 6 6 5 5 4 3 3 4 3 4 5 3 1 0 359 358 356 353 352 352 350 349 348 345 345 347 344 341 340 336 334 334 331 331 336 334 329 331 336 337 336 335 334 334 334 334 334 335 336 337 336 335 336
330 330 332 335 339 344 348 352 354 353 351 351 348 344 343 347 351 354 358 360 1 3 6 8 8 11 14 13 11 11 10 8 7 6 5 5 4 4 4 3 3 3 4 4 5 4 2 359 357 359 357 353 354 357 353 348 348 347 345 343 342 341 340 337 336 335 333 333 336 335 332 335 339 338 337 337 336 335 335 336 337 338 337 337 337 337 337
327 328 331 335 339 344 348 349 348 346 345 344 343 342 342 345 350 354 358 1 3 4 5 6 8 13 16 13 11 11 10 8 6 5 5 4 4 4 3 3 3 3 3 4 4 3 1 358 357 358 359 355 355 358 356 351 349 346 344 344 343 341 340 339 337 336 337 339 339 336 334 338 341 340 339 338 337 336 337 338 339 339 339 338 338 338 338
328 331 334 336 340 344 345 344 340 338 339 338 338 339 340 344 350 355 358 2 5 5 4 6 9 14 14 12 12 11 9 8 6 5 4 4 3 3 2 2 2 2 3 3 3 1 360 358 359 359 359 358 357 357 355 352 349 348 348 349 347 343 342 342 340 338 339 340 339 336 334 336 339 340 340 339 338 337 338 339 340 340 340 339 338 338 339
333 337 339 338 339 340 338 334 331 331 332 332 333 336 341 345 350 354 358 2 5 6 6 7 12 17 15 12 11 10 8 7 6 5 3 3 2 2 1 1 2 2 2 1 1 1 360 359 360 1 360 359 358 357 356 353 352 353 352 350 347 345 345 345 342 338 338 338 338 336 334 334 337 339 339 339 339 338 339 340 341 341 340 340 339 339 340
338 340 339 336 334 331 327 324 324 325 326 328 333 338 342 345 349 354 358 3 6 8 10 11 14 19 15 11 9 9 8 7 6 4 3 2 1 0 360 0 1 0 360 359 360 1 1 360 360 0 0 359 358 358 357 355 355 354 350 348 349 349 348 346 342 338 338 339 338 338 337 337 337 339 340 340 340 339 339 340 341 341 341 341 341 342 342
339 338 335 332 329 325 323 323 324 326 327 330 334 338 340 343 348 354 359 4 8 9 11 13 16 17 13 11 9 8 6 5 4 3 2 1 0 359 358 358 359 359 359 359 359 360 0 360 360 360 360 360 359 358 356 355 355 353 350 348 349 349 348 347 345 341 340 339 338 338 339 339 339 339 340 341 340 340 340 341 341 342 343 344 344 344 344
343 341 340 338 334 332 331 331 330 330 331 332 335 337 340 345 351 357 3 7 10 11 11 12 14 13 11 9 8 6 4 3 3 3 2 360 359 359 357 357 357 358 358 357 357 359 360 360 360 0 360 359 359 358 357 356 354 352 350 349 348 348 348 348 347 344 341 339 338 339 342 343 342 341 342 342 341 341 340 341 343 344 345 346 346 345 344
353 352 350 347 343 341 339 337 335 334 335 336 337 339 343 351 359 3 6 8 10 11 12 11 12 12 9 5 4 3 2 2 2 1 1 360 359 358 358 357 356 355 356 356 355 357 358 359 360 360 358 358 359 358 357 355 353 351 350 348 347 347 349 348 347 346 345 343 342 342 344 346 345 344 343 342 341 341 342 343 345 346 347 346 346 345 345
2 1 358 355 351 348 346 343 340 339 339 341 343 346 353 2 7 6 7 10 10 11 10 9 10 11 8 2 0 2 1 1 1 0 360 0 360 357 356 356 355 354 354 354 353 355 356 357 359 360 357 357 359 357 354 353 352 350 349 347 346 347 348 349 349 349 349 348 346 345 345 345 345 344 342 341 342 343 344 345 345 346 347 347 346 346 347
5 4 2 359 356 354 352 349 346 345 346 348 352 358 5 11 11 8 8 9 8 9 9 7 6 7 5 1 0 2 2 1 1 1 359 359 359 356 355 355 354 354 353 351 351 353 354 356 359 359 357 357 358 356 352 351 350 349 348 347 347 347 348 349 351 352 351 350 348 346 344 343 343 343 343 343 344 345 345 346 346 346 347 348 347 347 348
3 2 1 0 359 357 355 353 351 351 354 358 4 10 13 11 10 9 8 6 6 6 6 4 2 2 2 2 2 2 2 2 1 0 359 359 357 356 355 355 353 352 352 351 350 351 352 355 358 358 357 357 358 355 351 349 349 349 348 348 348 349 349 349 350 351 351 350 347 346 345 345 345 345 344 345 345 346 346 346 347 347 348 348 348 348 349
360 359 358 358 358 358 356 356 356 358 2 8 14 15 12 8 8 9 6 5 5 4 2 2 1 359 359 2 2 1 1 2 2 0 359 359 357 355 354 354 353 352 351 349 348 350 352 354 356 357 357 357 357 355 351 348 347 348 348 348 349 350 349 348 348 349 350 349 348 346 346 347 346 345 345 346 346 346 346 347 348 348 349 349 349 349 350
357 356 355 356 357 358 357 358 1 4 8 12 14 12 9 7 8 8 6 4 4 3 1 1 1 0 0 1 1 0 1 2 2 1 360 359 357 355 354 353 353 353 352 348 347 350 352 353 354 356 357 356 355 354 351 348 347 347 348 348 349 349 348 347 347 347 348 348 348 347 347 348 347 346 346 347 347 347 347 349 349 349 349 349 349 350 351
353 351 351 353 355 356 358 0 3 5 7 10 11 10 10 10 8 6 5 3 2 2 1 0 1 2 2 1 0 0 1 1 1 0 0 359 357 356 355 354 352 352 352 349 348 351 352 351 352 354 355 355 354 353 350 348 347 347 346 347 347 347 347 346 346 347 348 348 349 349 348 347 346 346 346 347 347 348 349 350 350 350 350 350 350 351 352
349 347 347 349 352 354 358 1 3 3 6 11 12 10 10 10 8 5 4 3 1 360 360 0 1 2 2 1 360 360 360 1 1 0 360 359 358 355 354 353 351 350 350 349 349 351 351 350 351 353 353 353 352 351 350 349 348 345 344 345 345 346 346 346 347 348 349 349 349 349 347 346 346 346 346 346 347 349 350 350 350 351 351 350 350 351 353
343 341 342 344 348 352 356 360 2 5 9 14 14 13 11 9 7 5 3 2 360 359 359 360 0 1 360 359 359 359 359 360 0 0 359 359 358 356 354 352 350 350 349 348 348 348 348 348 349 351 351 351 351 351 350 349 346 343 342 344 345 346 346 347 347 348 349 349 349 348 347 346 346 345 346 347 348 349 350 351 352 352 352 351 351 352 354
339 336 336 339 343 349 354 357 360 6 13 15 13 13 11 8 6 4 2 360 359 358 358 357 358 359 358 358 358 359 359 358 358 359 358 358 357 356 354 352 351 351 348 345 345 346 346 347 348 349 349 349 350 350 348 346 344 342 342 344 345 346 346 347 348 348 348 349 349 348 348 347 347 347 347 349 349 350 351 352 353 353 353 352 352 353 354
336 334 334 336 341 346 351 355 359 6 13 12 10 11 10 7 4 2 360 357 356 356 356 355 356 357 357 357 357 357 357 357 357 357 357 357 356 356 354 353 353 351 346 343 345 345 345 346 346 347 347 348 349 347 345 344 343 343 343 344 345 346 346 347 348 348 348 349 349 349 348 348 348 348 349 350 350 351 351 353 354 354 353 353 353 354 354
339 336 334 335 339 345 348 352 359 6 8 6 6 8 6 3 0 358 356 354 354 354 354 355 356 356 356 356 357 356 356 356 356 356 357 356 355 354 353 352 350 348 344 344 345 345 344 344 345 345 346 347 346 344 343 342 343 344 344 344 345 346 347 347 347 348 348 349 349 349 349 349 349 350 350 350 351 352 353 354 355 354 354 354 354 354 355
348 344 339 337 340 345 348 350 355 1 3 2 1 2 1 358 356 354 353 352 352 353 354 355 356 357 356 356 356 356 355 354 354 355 356 355 354 353 351 348 346 345 345 344 344 344 343 343 344 344 345 344 343 342 342 342 343 344 344 345 345 346 346 346 347 348 348 348 349 349 350 350 350 351 351 351 352 353 354 355 355 355 355 355 355 355 356
356 352 348 345 345 350 355 355 354 355 356 357 357 356 355 354 352 352 352 353 354 355 355 356 356 357 356 356 356 355 354 353 354 354 354 355 354 352 349 346 345 346 345 343 343 343 342 342 342 342 342 342 342 342 343 342 342 343 344 345 346 346 346 346 346 347 348 348 349 350 350 350 351 352 352 352 353 354 355 355 356 356 356 356 356 356 357
1 357 355 355 356 359 1 358 354 351 351 352 353 353 352 351 351 352 354 355 356 356 356 356 357 357 356 356 355 355 354 353 353 354 354 355 353 351 348 348 347 346 343 341 341 341 340 340 340 340 340 340 342 342 342 341 342 343 344 345 346 346 346 346 346 347 347 348 350 350 350 350 352 352 353 353 354 355 355 356 356 356 356 356 357 357 358
6 5 4 6 6 4 1 357 353 350 349 350 351 353 353 353 354 356 357 357 357 358 358 357 357 357 356 355 354 354 355 354 354 354 355 354 352 350 349 347 346 343 339 337 337 338 337 338 338 338 338 339 341 341 341 341 341 343 344 345 346 346 345 345 346 347 348 349 350 350 350 351 352 353 354 354 355 355 356 357 356 356 356 356 357 358 358
8 9 11 13 11 6 1 357 354 353 353 353 354 356 357 357 359 0 1 0 359 358 357 357 357 357 355 354 354 355 356 357 356 355 354 352 350 349 347 344 341 340 337 335 334 335 336 336 337 337 337 338 340 340 340 340 341 342 344 345 345 345 344 345 345 346 348 349 349 349 350 351 352 353 354 354 355 356 357 357 357 356 356 357 358 359 359
9 10 12 13 11 7 3 360 358 357 357 357 359 1 2 2 3 4 3 2 359 357 356 357 358 357 356 355 354 355 357 358 356 354 352 350 346 344 342 339 337 337 336 334 333 334 335 335 335 335 336 338 339 339 339 339 340 342 343 344 345 345 344 344 345 346 347 349 349 350 350 351 352 353 354 355 356 357 357 357 356 356 357 358 359 359 360
8 9 10 10 8 6 3 1 1 2 2 2 3 4 5 5 5 4 3 0 358 356 356 356 357 358 358 357 357 356 356 356 354 351 349 347 343 340 338 336 334 334 334 334 333 333 333 333 333 334 335 337 338 338 338 339 340 341 343 344 344 344 344 344 344 345 347 348 350 350 351 351 352 353 354 355 356 357 356 356 356 357 358 359 360 360 360
4 6 7 5 4 3 2 2 2 3 2 0 359 359 0 1 1 360 358 357 355 354 354 355 356 358 359 359 358 355 352 352 352 351 348 344 341 337 336 334 333 333 333 334 333 332 333 333 333 333 334 336 337 338 338 338 339 341 343 343 344 344 343 343 344 345 346 348 350 350 351 351 352 353 354 355 356 356 356 356 357 358 359 360 0 0 360
359 360 360 359 358 357 358 357 357 356 354 353 352 350 350 351 351 350 350 351 351 350 350 351 354 356 357 358 357 355 352 351 351 350 347 342 339 337 336 335 334 334 334 334 333 333 333 333 332 332 334 336 337 337 338 338 339 341 342 343 343 343 342 342 343 344 346 348 349 350 351 351 352 353 353 354 354 355 356 357 357 358 359 1 1 1 0